PIMOHWEATHER Station Historical Data
Daily Summary for March 06, 2020 Units:  Metric    English   Both
Daily Weekly Monthly Yearly
  High: Low: Average:
Temperature: 34.0 °C 25.0 °C 28.9 °C
Dew Point: 26.0 °C 21.0 °C 23 °C
Humidity: 85% 60% 71%
Wind Speed: 21km/h 0km/h 8.1km/h
Wind Gust: 24km/h - -
Wind- - SSW
Pressure: 1012.2 hPa 1007.8 hPa -
Precipitation: 0.00 mm    
 
 
Tabular Data for March 06, 2020
Time Temperature Dew Point Pressure Wind Wind Speed Wind Gust Humidity Rainfall Rate (Hourly) solar
00:04 27.0 °C 22.0 °C 1010.5 hPa NW 4 km/h 4 km/h 73% 0.00 mm 0.00 W/m2
00:09 27.0 °C 22.0 °C 1010.5 hPa Calm     73% 0.00 mm 0.00 W/m2
00:14 27.0 °C 22.0 °C 1010.5 hPa South 1 km/h 4 km/h 74% 0.00 mm 0.00 W/m2
00:19 27.0 °C 22.0 °C 1010.5 hPa Calm     73% 0.00 mm 0.00 W/m2
00:24 27.0 °C 22.0 °C 1010.5 hPa Calm     74% 0.00 mm 0.00 W/m2
00:29 27.0 °C 22.0 °C 1010.5 hPa Calm   4 km/h 74% 0.00 mm 0.00 W/m2
00:34 27.0 °C 22.0 °C 1010.5 hPa NW 3 km/h 4 km/h 75% 0.00 mm 0.00 W/m2
00:39 27.0 °C 22.0 °C 1010.5 hPa WNW 3 km/h 4 km/h 75% 0.00 mm 0.00 W/m2
00:44 27.0 °C 22.0 °C 1010.5 hPa WNW 4 km/h 4 km/h 76% 0.00 mm 0.00 W/m2
00:49 27.0 °C 23.0 °C 1010.2 hPa Calm     77% 0.00 mm 0.00 W/m2
00:54 27.0 °C 23.0 °C 1010.2 hPa Calm   4 km/h 77% 0.00 mm 0.00 W/m2
00:59 27.0 °C 23.0 °C 1010.2 hPa SSW 3 km/h 4 km/h 77% 0.00 mm 0.00 W/m2
01:04 27.0 °C 23.0 °C 1009.8 hPa South 5 km/h 8 km/h 78% 0.00 mm 0.00 W/m2
01:09 27.0 °C 23.0 °C 1009.8 hPa SSW 3 km/h 4 km/h 78% 0.00 mm 0.00 W/m2
01:14 27.0 °C 23.0 °C 1009.8 hPa Calm   4 km/h 78% 0.00 mm 0.00 W/m2
01:19 27.0 °C 23.0 °C 1009.8 hPa SE 2 km/h 4 km/h 78% 0.00 mm 0.00 W/m2
01:24 27.0 °C 23.0 °C 1010.2 hPa West 3 km/h 4 km/h 78% 0.00 mm 0.00 W/m2
01:29 27.0 °C 23.0 °C 1009.8 hPa SW 1 km/h 4 km/h 77% 0.00 mm 0.00 W/m2
01:34 27.0 °C 23.0 °C 1009.8 hPa NW 11 km/h 16 km/h 79% 0.00 mm 0.00 W/m2
01:39 26.0 °C 23.0 °C 1009.8 hPa NW 9 km/h 12 km/h 80% 0.00 mm 0.00 W/m2
01:44 26.0 °C 23.0 °C 1009.8 hPa NW 9 km/h 12 km/h 81% 0.00 mm 0.00 W/m2
01:49 26.0 °C 23.0 °C 1009.8 hPa NW 10 km/h 12 km/h 81% 0.00 mm 0.00 W/m2
01:54 26.0 °C 23.0 °C 1009.5 hPa NW 10 km/h 12 km/h 81% 0.00 mm 0.00 W/m2
01:59 26.0 °C 23.0 °C 1009.5 hPa WNW 6 km/h 8 km/h 81% 0.00 mm 0.00 W/m2
02:04 26.0 °C 23.0 °C 1009.5 hPa NNW 5 km/h 8 km/h 81% 0.00 mm 0.00 W/m2
02:09 26.0 °C 23.0 °C 1009.8 hPa NW 5 km/h 8 km/h 81% 0.00 mm 0.00 W/m2
02:14 26.0 °C 23.0 °C 1009.8 hPa North 3 km/h 4 km/h 81% 0.00 mm 0.00 W/m2
02:19 26.0 °C 23.0 °C 1009.8 hPa North 3 km/h 4 km/h 81% 0.00 mm 0.00 W/m2
02:24 26.0 °C 23.0 °C 1009.5 hPa Calm   4 km/h 81% 0.00 mm 0.00 W/m2
02:29 26.0 °C 23.0 °C 1009.1 hPa WNW 3 km/h 4 km/h 81% 0.00 mm 0.00 W/m2
02:34 26.0 °C 23.0 °C 1009.1 hPa NW 4 km/h 4 km/h 81% 0.00 mm 0.00 W/m2
02:39 26.0 °C 23.0 °C 1009.5 hPa NW 4 km/h 8 km/h 81% 0.00 mm 0.00 W/m2
02:44 26.0 °C 22.0 °C 1009.1 hPa NW 4 km/h 4 km/h 81% 0.00 mm 0.00 W/m2
02:49 26.0 °C 22.0 °C 1009.5 hPa NW 5 km/h 8 km/h 81% 0.00 mm 0.00 W/m2
02:54 26.0 °C 22.0 °C 1009.5 hPa WNW 1 km/h 4 km/h 81% 0.00 mm 0.00 W/m2
02:59 26.0 °C 23.0 °C 1009.5 hPa NW 5 km/h 8 km/h 82% 0.00 mm 0.00 W/m2
03:04 26.0 °C 23.0 °C 1009.5 hPa NW 5 km/h 8 km/h 82% 0.00 mm 0.00 W/m2
03:09 26.0 °C 22.0 °C 1009.5 hPa NW 6 km/h 8 km/h 82% 0.00 mm 0.00 W/m2
03:14 26.0 °C 22.0 °C 1009.5 hPa WNW 5 km/h 8 km/h 82% 0.00 mm 0.00 W/m2
03:19 26.0 °C 22.0 °C 1009.5 hPa NW 8 km/h 12 km/h 82% 0.00 mm 0.00 W/m2
03:24 26.0 °C 22.0 °C 1009.5 hPa NW 5 km/h 8 km/h 82% 0.00 mm 0.00 W/m2
03:29 26.0 °C 22.0 °C 1009.5 hPa NW 5 km/h 8 km/h 82% 0.00 mm 0.00 W/m2
03:34 26.0 °C 22.0 °C 1009.5 hPa NW 5 km/h 8 km/h 82% 0.00 mm 0.00 W/m2
03:39 26.0 °C 22.0 °C 1009.5 hPa North 4 km/h 4 km/h 82% 0.00 mm 0.00 W/m2
03:44 26.0 °C 22.0 °C 1009.5 hPa NW 6 km/h 8 km/h 82% 0.00 mm 0.00 W/m2
03:49 26.0 °C 22.0 °C 1009.5 hPa NW 5 km/h 8 km/h 82% 0.00 mm 0.00 W/m2
03:54 25.0 °C 22.0 °C 1009.5 hPa NW 7 km/h 8 km/h 82% 0.00 mm 0.00 W/m2
03:59 25.0 °C 22.0 °C 1009.5 hPa NW 7 km/h 8 km/h 82% 0.00 mm 0.00 W/m2
04:04 25.0 °C 22.0 °C 1009.5 hPa NW 6 km/h 8 km/h 82% 0.00 mm 0.00 W/m2
04:09 25.0 °C 22.0 °C 1009.5 hPa NW 8 km/h 12 km/h 82% 0.00 mm 0.00 W/m2
04:14 25.0 °C 22.0 °C 1009.5 hPa NNW 6 km/h 8 km/h 82% 0.00 mm 0.00 W/m2
04:19 25.0 °C 22.0 °C 1009.5 hPa North 4 km/h 4 km/h 82% 0.00 mm 0.00 W/m2
04:24 25.0 °C 22.0 °C 1009.5 hPa North 3 km/h 4 km/h 83% 0.00 mm 0.00 W/m2
04:29 25.0 °C 22.0 °C 1009.5 hPa NW 5 km/h 8 km/h 83% 0.00 mm 0.00 W/m2
04:34 25.0 °C 22.0 °C 1009.5 hPa NNW 3 km/h 4 km/h 83% 0.00 mm 0.00 W/m2
04:39 25.0 °C 22.0 °C 1009.5 hPa North 3 km/h 4 km/h 83% 0.00 mm 0.00 W/m2
04:44 25.0 °C 22.0 °C 1009.5 hPa Calm   4 km/h 83% 0.00 mm 0.00 W/m2
04:49 25.0 °C 22.0 °C 1009.5 hPa Calm     83% 0.00 mm 0.00 W/m2
04:54 25.0 °C 22.0 °C 1009.5 hPa NW 4 km/h 4 km/h 83% 0.00 mm 0.00 W/m2
04:59 25.0 °C 22.0 °C 1009.1 hPa NW 3 km/h 4 km/h 83% 0.00 mm 0.00 W/m2
05:04 25.0 °C 22.0 °C 1009.5 hPa WNW 4 km/h 4 km/h 83% 0.00 mm 0.00 W/m2
05:09 25.0 °C 22.0 °C 1009.5 hPa WNW 4 km/h 4 km/h 84% 0.00 mm 0.00 W/m2
05:14 25.0 °C 22.0 °C 1009.5 hPa NW 5 km/h 8 km/h 84% 0.00 mm 0.00 W/m2
05:19 25.0 °C 22.0 °C 1009.8 hPa NW 5 km/h 8 km/h 84% 0.00 mm 0.00 W/m2
05:24 25.0 °C 22.0 °C 1009.5 hPa NW 4 km/h 4 km/h 84% 0.00 mm 0.00 W/m2
05:29 25.0 °C 22.0 °C 1009.8 hPa NW 5 km/h 8 km/h 84% 0.00 mm 0.00 W/m2
05:34 25.0 °C 22.0 °C 1009.8 hPa WNW 5 km/h 8 km/h 84% 0.00 mm 0.00 W/m2
05:39 25.0 °C 22.0 °C 1009.8 hPa NW 5 km/h 8 km/h 84% 0.00 mm 0.00 W/m2
05:44 25.0 °C 22.0 °C 1009.8 hPa WNW 4 km/h 4 km/h 84% 0.00 mm 0.00 W/m2
05:49 25.0 °C 22.0 °C 1010.2 hPa NW 6 km/h 12 km/h 84% 0.00 mm 0.00 W/m2
05:54 25.0 °C 22.0 °C 1010.2 hPa NW 5 km/h 8 km/h 85% 0.00 mm 0.00 W/m2
05:59 25.0 °C 22.0 °C 1010.2 hPa North 5 km/h 8 km/h 85% 0.00 mm 0.00 W/m2
06:04 25.0 °C 22.0 °C 1010.2 hPa WNW 4 km/h 4 km/h 85% 0.00 mm 0.00 W/m2
06:09 25.0 °C 22.0 °C 1010.2 hPa NW 4 km/h 4 km/h 85% 0.00 mm 0.00 W/m2
06:14 25.0 °C 22.0 °C 1010.2 hPa WNW 3 km/h 4 km/h 85% 0.00 mm 3.10 W/m2
06:19 25.0 °C 22.0 °C 1010.2 hPa Calm     85% 0.00 mm 6.04 W/m2
06:24 25.0 °C 22.0 °C 1010.5 hPa Calm     85% 0.00 mm 10.09 W/m2
06:29 25.0 °C 22.0 °C 1010.5 hPa Calm     85% 0.00 mm 13.60 W/m2
06:34 25.0 °C 22.0 °C 1010.5 hPa Calm     84% 0.00 mm 20.95 W/m2
06:39 25.0 °C 22.0 °C 1010.5 hPa Calm     84% 0.00 mm 26.62 W/m2
06:44 25.0 °C 22.0 °C 1010.5 hPa Calm   4 km/h 84% 0.00 mm 30.74 W/m2
06:49 26.0 °C 23.0 °C 1010.5 hPa Calm   4 km/h 83% 0.00 mm 35.29 W/m2
06:54 26.0 °C 23.0 °C 1010.5 hPa Calm     82% 0.00 mm 40.90 W/m2
06:59 26.0 °C 23.0 °C 1010.8 hPa SSE 1 km/h 4 km/h 82% 0.00 mm 54.89 W/m2
07:04 26.0 °C 23.0 °C 1010.8 hPa SSE 3 km/h 4 km/h 81% 0.00 mm 82.84 W/m2
07:09 26.0 °C 23.0 °C 1010.8 hPa South 4 km/h 8 km/h 81% 0.00 mm 92.51 W/m2
07:14 27.0 °C 23.0 °C 1010.8 hPa SSE 5 km/h 8 km/h 81% 0.00 mm 98.57 W/m2
07:19 27.0 °C 23.0 °C 1010.8 hPa SSE 4 km/h 4 km/h 79% 0.00 mm 107.33 W/m2
07:24 27.0 °C 23.0 °C 1010.8 hPa SE 6 km/h 8 km/h 78% 0.00 mm 111.88 W/m2
07:29 28.0 °C 23.0 °C 1011.2 hPa SE 4 km/h 4 km/h 78% 0.00 mm 119.54 W/m2
07:34 28.0 °C 23.0 °C 1011.2 hPa SSE 5 km/h 8 km/h 77% 0.00 mm 124.04 W/m2
07:39 28.0 °C 23.0 °C 1010.8 hPa SE 10 km/h 12 km/h 78% 0.00 mm 147.53 W/m2
07:44 28.0 °C 23.0 °C 1011.2 hPa SE 10 km/h 12 km/h 78% 0.00 mm 149.15 W/m2
07:49 28.0 °C 24.0 °C 1010.8 hPa South 10 km/h 12 km/h 77% 0.00 mm 146.75 W/m2
07:54 28.0 °C 24.0 °C 1011.2 hPa SE 12 km/h 16 km/h 78% 0.00 mm 164.19 W/m2
07:59 28.0 °C 24.0 °C 1011.2 hPa SE 10 km/h 12 km/h 77% 0.00 mm 170.95 W/m2
08:04 28.0 °C 23.0 °C 1011.2 hPa SE 12 km/h 16 km/h 78% 0.00 mm 171.88 W/m2
08:09 28.0 °C 24.0 °C 1011.2 hPa SSE 13 km/h 16 km/h 78% 0.00 mm 188.49 W/m2
08:14 29.0 °C 24.0 °C 1011.2 hPa SE 9 km/h 12 km/h 78% 0.00 mm 216.19 W/m2
08:19 29.0 °C 24.0 °C 1011.2 hPa South 8 km/h 12 km/h 75% 0.00 mm 226.24 W/m2
08:24 29.0 °C 24.0 °C 1011.5 hPa SSE 11 km/h 12 km/h 76% 0.00 mm 240.46 W/m2
08:29 29.0 °C 24.0 °C 1011.5 hPa South 10 km/h 12 km/h 75% 0.00 mm 252.18 W/m2
08:34 29.0 °C 24.0 °C 1011.5 hPa SSE 15 km/h 20 km/h 76% 0.00 mm 249.68 W/m2
08:39 29.0 °C 24.0 °C 1011.5 hPa South 7 km/h 8 km/h 75% 0.00 mm 252.06 W/m2
08:44 30.0 °C 24.0 °C 1011.5 hPa South 8 km/h 12 km/h 73% 0.00 mm 282.40 W/m2
08:49 29.0 °C 24.0 °C 1011.5 hPa South 10 km/h 16 km/h 73% 0.00 mm 285.04 W/m2
08:54 30.0 °C 24.0 °C 1011.5 hPa South 11 km/h 16 km/h 73% 0.00 mm 292.75 W/m2
08:59 30.0 °C 24.0 °C 1011.9 hPa South 7 km/h 8 km/h 73% 0.00 mm 311.44 W/m2
09:04 30.0 °C 24.0 °C 1011.9 hPa WSW 6 km/h 8 km/h 72% 0.00 mm 337.13 W/m2
09:09 30.0 °C 24.0 °C 1011.5 hPa SSW 9 km/h 12 km/h 71% 0.00 mm 333.66 W/m2
09:14 30.0 °C 24.0 °C 1011.9 hPa South 9 km/h 16 km/h 72% 0.00 mm 253.38 W/m2
09:19 30.0 °C 24.0 °C 1011.9 hPa South 8 km/h 12 km/h 72% 0.00 mm 311.05 W/m2
09:24 30.0 °C 24.0 °C 1011.9 hPa WSW 8 km/h 8 km/h 72% 0.00 mm 341.19 W/m2
09:29 30.0 °C 24.0 °C 1011.9 hPa SSW 10 km/h 16 km/h 71% 0.00 mm 350.93 W/m2
09:34 30.0 °C 24.0 °C 1011.9 hPa West 10 km/h 12 km/h 72% 0.00 mm 193.31 W/m2
09:39 30.0 °C 24.0 °C 1011.9 hPa South 8 km/h 12 km/h 72% 0.00 mm 285.99 W/m2
09:44 30.0 °C 24.0 °C 1011.9 hPa South 8 km/h 12 km/h 73% 0.00 mm 305.66 W/m2
09:49 30.0 °C 25.0 °C 1012.2 hPa SW 9 km/h 16 km/h 73% 0.00 mm 307.08 W/m2
09:54 30.0 °C 25.0 °C 1012.2 hPa West 10 km/h 12 km/h 74% 0.00 mm 330.18 W/m2
09:59 30.0 °C 24.0 °C 1011.9 hPa West 12 km/h 16 km/h 74% 0.00 mm 364.90 W/m2
10:04 30.0 °C 24.0 °C 1012.2 hPa WNW 14 km/h 16 km/h 74% 0.00 mm 319.88 W/m2
10:09 30.0 °C 24.0 °C 1012.2 hPa West 11 km/h 16 km/h 75% 0.00 mm 328.49 W/m2
10:14 30.0 °C 24.0 °C 1012.2 hPa South 6 km/h 12 km/h 70% 0.00 mm 313.35 W/m2
10:19 30.0 °C 24.0 °C 1011.9 hPa West 12 km/h 16 km/h 71% 0.00 mm 331.58 W/m2
10:24 30.0 °C 24.0 °C 1012.2 hPa South 10 km/h 16 km/h 69% 0.00 mm 326.00 W/m2
10:29 31.0 °C 24.0 °C 1011.9 hPa SW 10 km/h 12 km/h 70% 0.00 mm 356.83 W/m2
10:34 31.0 °C 24.0 °C 1011.9 hPa SSW 10 km/h 16 km/h 69% 0.00 mm 363.55 W/m2
10:39 31.0 °C 24.0 °C 1011.9 hPa WSW 8 km/h 12 km/h 69% 0.00 mm 349.46 W/m2
10:44 31.0 °C 24.0 °C 1011.9 hPa SW 8 km/h 12 km/h 69% 0.00 mm 366.29 W/m2
10:49 31.0 °C 24.0 °C 1011.5 hPa WSW 13 km/h 16 km/h 68% 0.00 mm 369.82 W/m2
10:54 31.0 °C 24.0 °C 1011.5 hPa SW 9 km/h 12 km/h 68% 0.00 mm 361.57 W/m2
10:59 31.0 °C 24.0 °C 1011.2 hPa WNW 11 km/h 16 km/h 69% 0.00 mm 368.94 W/m2
11:04 31.0 °C 24.0 °C 1011.2 hPa SW 9 km/h 12 km/h 69% 0.00 mm 393.11 W/m2
11:09 31.0 °C 24.0 °C 1011.2 hPa SW 12 km/h 16 km/h 67% 0.00 mm 395.04 W/m2
11:14 31.0 °C 24.0 °C 1011.2 hPa SSW 9 km/h 12 km/h 67% 0.00 mm 414.20 W/m2
11:19 32.0 °C 24.0 °C 1010.8 hPa South 13 km/h 16 km/h 67% 0.00 mm 428.78 W/m2
11:24 32.0 °C 24.0 °C 1011.2 hPa WSW 10 km/h 20 km/h 66% 0.00 mm 435.61 W/m2
11:29 32.0 °C 25.0 °C 1010.8 hPa SSW 15 km/h 20 km/h 67% 0.00 mm 410.97 W/m2
11:34 31.0 °C 24.0 °C 1010.8 hPa South 12 km/h 16 km/h 68% 0.00 mm 397.73 W/m2
11:39 32.0 °C 24.0 °C 1010.8 hPa South 10 km/h 12 km/h 67% 0.00 mm 392.21 W/m2
11:44 32.0 °C 24.0 °C 1010.5 hPa South 12 km/h 12 km/h 66% 0.00 mm 387.14 W/m2
11:49 32.0 °C 25.0 °C 1010.5 hPa South 15 km/h 16 km/h 66% 0.00 mm 393.09 W/m2
11:54 32.0 °C 25.0 °C 1010.5 hPa South 14 km/h 16 km/h 66% 0.00 mm 405.69 W/m2
11:59 32.0 °C 25.0 °C 1010.5 hPa South 12 km/h 20 km/h 65% 0.00 mm 401.85 W/m2
12:04 32.0 °C 24.0 °C 1010.5 hPa South 11 km/h 16 km/h 65% 0.00 mm 411.36 W/m2
12:09 32.0 °C 24.0 °C 1010.5 hPa South 12 km/h 16 km/h 67% 0.00 mm 404.61 W/m2
12:14 32.0 °C 25.0 °C 1010.5 hPa South 10 km/h 12 km/h 66% 0.00 mm 443.71 W/m2
12:19 32.0 °C 25.0 °C 1010.2 hPa SW 8 km/h 12 km/h 64% 0.00 mm 441.12 W/m2
12:24 33.0 °C 25.0 °C 1009.8 hPa WSW 13 km/h 16 km/h 64% 0.00 mm 460.59 W/m2
12:29 33.0 °C 25.0 °C 1009.8 hPa South 13 km/h 16 km/h 64% 0.00 mm 448.46 W/m2
12:34 33.0 °C 25.0 °C 1009.5 hPa South 11 km/h 16 km/h 64% 0.00 mm 451.00 W/m2
12:39 33.0 °C 25.0 °C 1009.5 hPa SSE 12 km/h 16 km/h 64% 0.00 mm 451.07 W/m2
12:44 33.0 °C 25.0 °C 1009.1 hPa SSW 10 km/h 12 km/h 63% 0.00 mm 445.30 W/m2
12:49 33.0 °C 25.0 °C 1009.1 hPa South 10 km/h 12 km/h 62% 0.00 mm 456.75 W/m2
12:54 33.0 °C 25.0 °C 1009.1 hPa South 13 km/h 16 km/h 63% 0.00 mm 460.64 W/m2
12:59 34.0 °C 25.0 °C 1009.1 hPa West 8 km/h 12 km/h 63% 0.00 mm 477.89 W/m2
13:04 34.0 °C 25.0 °C 1009.1 hPa West 10 km/h 12 km/h 62% 0.00 mm 464.07 W/m2
13:09 33.0 °C 25.0 °C 1008.8 hPa West 10 km/h 16 km/h 63% 0.00 mm 469.52 W/m2
13:14 32.0 °C 25.0 °C 1008.8 hPa NW 12 km/h 16 km/h 64% 0.00 mm 464.19 W/m2
13:19 33.0 °C 25.0 °C 1008.8 hPa NW 12 km/h 16 km/h 64% 0.00 mm 460.76 W/m2
13:24 33.0 °C 25.0 °C 1008.8 hPa South 13 km/h 16 km/h 63% 0.00 mm 452.96 W/m2
13:29 33.0 °C 25.0 °C 1008.5 hPa West 13 km/h 20 km/h 63% 0.00 mm 472.68 W/m2
13:34 33.0 °C 25.0 °C 1008.8 hPa NW 18 km/h 24 km/h 65% 0.00 mm 473.19 W/m2
13:39 33.0 °C 25.0 °C 1008.8 hPa West 14 km/h 20 km/h 64% 0.00 mm 478.06 W/m2
13:44 33.0 °C 25.0 °C 1008.5 hPa SSW 11 km/h 16 km/h 64% 0.00 mm 451.51 W/m2
13:49 33.0 °C 25.0 °C 1008.8 hPa South 10 km/h 12 km/h 64% 0.00 mm 477.99 W/m2
13:54 34.0 °C 25.0 °C 1008.8 hPa SSW 13 km/h 16 km/h 62% 0.00 mm 486.55 W/m2
13:59 33.0 °C 25.0 °C 1008.1 hPa South 15 km/h 16 km/h 64% 0.00 mm 480.02 W/m2
14:04 34.0 °C 25.0 °C 1008.1 hPa WSW 9 km/h 12 km/h 62% 0.00 mm 426.53 W/m2
14:09 33.0 °C 25.0 °C 1008.1 hPa South 14 km/h 16 km/h 63% 0.00 mm 365.54 W/m2
14:14 33.0 °C 25.0 °C 1008.1 hPa South 17 km/h 20 km/h 64% 0.00 mm 441.63 W/m2
14:19 34.0 °C 25.0 °C 1008.1 hPa SSW 9 km/h 12 km/h 63% 0.00 mm 441.85 W/m2
14:24 34.0 °C 25.0 °C 1008.1 hPa South 12 km/h 12 km/h 62% 0.00 mm 430.13 W/m2
14:29 34.0 °C 25.0 °C 1008.1 hPa NNW 12 km/h 16 km/h 62% 0.00 mm 430.28 W/m2
14:34 34.0 °C 26.0 °C 1007.8 hPa SW 8 km/h 12 km/h 62% 0.00 mm 396.61 W/m2
14:39 34.0 °C 26.0 °C 1007.8 hPa West 12 km/h 16 km/h 64% 0.00 mm 338.13 W/m2
14:44 33.0 °C 25.0 °C 1008.1 hPa West 10 km/h 12 km/h 66% 0.00 mm 279.39 W/m2
14:49 33.0 °C 25.0 °C 1008.1 hPa South 9 km/h 12 km/h 66% 0.00 mm 333.21 W/m2
14:54 33.0 °C 25.0 °C 1008.1 hPa WSW 8 km/h 12 km/h 64% 0.00 mm 325.07 W/m2
14:59 33.0 °C 25.0 °C 1007.8 hPa WNW 15 km/h 20 km/h 67% 0.00 mm 250.56 W/m2
15:04 32.0 °C 25.0 °C 1007.8 hPa NW 21 km/h 24 km/h 68% 0.00 mm 332.43 W/m2
15:09 33.0 °C 26.0 °C 1007.8 hPa SSE 10 km/h 12 km/h 66% 0.00 mm 372.75 W/m2
15:14 33.0 °C 26.0 °C 1007.8 hPa SSW 5 km/h 12 km/h 65% 0.00 mm 385.92 W/m2
15:19 33.0 °C 25.0 °C 1007.8 hPa WNW 15 km/h 20 km/h 67% 0.00 mm 362.84 W/m2
15:24 33.0 °C 25.0 °C 1007.8 hPa South 10 km/h 12 km/h 66% 0.00 mm 323.26 W/m2
15:29 33.0 °C 26.0 °C 1007.8 hPa SSW 10 km/h 16 km/h 65% 0.00 mm 240.61 W/m2
15:34 33.0 °C 25.0 °C 1007.8 hPa West 10 km/h 12 km/h 66% 0.00 mm 202.80 W/m2
15:39 33.0 °C 25.0 °C 1007.8 hPa NNW 5 km/h 12 km/h 66% 0.00 mm 194.61 W/m2
15:44 33.0 °C 25.0 °C 1007.8 hPa NW 7 km/h 12 km/h 66% 0.00 mm 206.50 W/m2
15:49 33.0 °C 25.0 °C 1007.8 hPa NW 12 km/h 16 km/h 66% 0.00 mm 211.78 W/m2
15:54 32.0 °C 25.0 °C 1007.8 hPa NW 15 km/h 16 km/h 67% 0.00 mm 165.25 W/m2
15:59 32.0 °C 25.0 °C 1007.8 hPa NW 14 km/h 16 km/h 68% 0.00 mm 172.54 W/m2
16:04 32.0 °C 25.0 °C 1007.8 hPa NW 16 km/h 20 km/h 65% 0.00 mm 168.18 W/m2
16:09 32.0 °C 25.0 °C 1007.8 hPa NW 20 km/h 20 km/h 65% 0.00 mm 138.24 W/m2
16:14 32.0 °C 24.0 °C 1008.1 hPa NW 15 km/h 20 km/h 65% 0.00 mm 126.98 W/m2
16:19 32.0 °C 24.0 °C 1007.8 hPa NW 16 km/h 24 km/h 64% 0.00 mm 113.89 W/m2
16:24 32.0 °C 24.0 °C 1008.1 hPa NNW 17 km/h 20 km/h 64% 0.00 mm 96.89 W/m2
16:29 32.0 °C 24.0 °C 1008.1 hPa NNW 16 km/h 20 km/h 65% 0.00 mm 89.52 W/m2
16:34 32.0 °C 24.0 °C 1008.1 hPa NW 18 km/h 20 km/h 65% 0.00 mm 64.26 W/m2
16:39 31.0 °C 24.0 °C 1008.1 hPa NW 20 km/h 24 km/h 65% 0.00 mm 60.14 W/m2
16:44 32.0 °C 24.0 °C 1008.5 hPa NW 14 km/h 16 km/h 64% 0.00 mm 48.40 W/m2
16:49 32.0 °C 24.0 °C 1008.5 hPa NW 16 km/h 20 km/h 65% 0.00 mm 28.63 W/m2
16:54 31.0 °C 24.0 °C 1008.5 hPa NNW 18 km/h 20 km/h 66% 0.00 mm 18.82 W/m2
16:59 31.0 °C 24.0 °C 1008.8 hPa NNW 19 km/h 20 km/h 66% 0.00 mm 14.00 W/m2
17:04 31.0 °C 24.0 °C 1008.8 hPa North 12 km/h 16 km/h 65% 0.00 mm 11.01 W/m2
17:09 31.0 °C 24.0 °C 1008.8 hPa NNE 11 km/h 16 km/h 65% 0.00 mm 11.07 W/m2
17:14 31.0 °C 22.0 °C 1008.8 hPa NE 19 km/h 24 km/h 60% 0.00 mm 12.09 W/m2
17:19 31.0 °C 22.0 °C 1009.1 hPa NE 13 km/h 16 km/h 60% 0.00 mm 14.19 W/m2
17:24 31.0 °C 22.0 °C 1009.1 hPa ENE 14 km/h 16 km/h 60% 0.00 mm 16.40 W/m2
17:29 31.0 °C 22.0 °C 1009.1 hPa SE 16 km/h 20 km/h 60% 0.00 mm 17.48 W/m2
17:34 31.0 °C 22.0 °C 1009.1 hPa NE 15 km/h 20 km/h 60% 0.00 mm 17.89 W/m2
17:39 30.0 °C 22.0 °C 1009.1 hPa NE 20 km/h 24 km/h 60% 0.00 mm 17.74 W/m2
17:44 30.0 °C 22.0 °C 1009.5 hPa NNE 14 km/h 16 km/h 61% 0.00 mm 14.09 W/m2
17:49 30.0 °C 22.0 °C 1009.8 hPa NE 15 km/h 20 km/h 61% 0.00 mm 11.83 W/m2
17:54 30.0 °C 22.0 °C 1009.5 hPa ENE 8 km/h 12 km/h 62% 0.00 mm 8.21 W/m2
17:59 30.0 °C 22.0 °C 1009.5 hPa NE 15 km/h 16 km/h 62% 0.00 mm 4.93 W/m2
18:04 30.0 °C 22.0 °C 1009.5 hPa NE 17 km/h 24 km/h 62% 0.00 mm 1.35 W/m2
18:09 30.0 °C 22.0 °C 1009.8 hPa ENE 8 km/h 12 km/h 62% 0.00 mm 0.00 W/m2
18:14 30.0 °C 22.0 °C 1009.8 hPa East 10 km/h 12 km/h 63% 0.00 mm 0.00 W/m2
18:19 29.0 °C 22.0 °C 1009.8 hPa NE 15 km/h 20 km/h 63% 0.00 mm 0.00 W/m2
18:24 29.0 °C 22.0 °C 1010.2 hPa ENE 9 km/h 12 km/h 64% 0.00 mm 0.00 W/m2
18:29 29.0 °C 22.0 °C 1010.2 hPa ENE 9 km/h 16 km/h 64% 0.00 mm 0.00 W/m2
18:34 29.0 °C 22.0 °C 1010.2 hPa NE 15 km/h 20 km/h 64% 0.00 mm 0.00 W/m2
18:39 29.0 °C 22.0 °C 1009.8 hPa NE 10 km/h 16 km/h 65% 0.00 mm 0.00 W/m2
18:44 29.0 °C 22.0 °C 1010.2 hPa NE 15 km/h 24 km/h 65% 0.00 mm 0.00 W/m2
18:49 29.0 °C 22.0 °C 1010.2 hPa NE 10 km/h 12 km/h 65% 0.00 mm 0.00 W/m2
18:54 29.0 °C 22.0 °C 1010.5 hPa NNE 10 km/h 12 km/h 65% 0.00 mm 0.00 W/m2
18:59 29.0 °C 22.0 °C 1010.2 hPa NNE 11 km/h 16 km/h 65% 0.00 mm 0.00 W/m2
19:04 29.0 °C 22.0 °C 1010.2 hPa NE 13 km/h 16 km/h 65% 0.00 mm 0.00 W/m2
19:09 29.0 °C 22.0 °C 1010.5 hPa NE 15 km/h 20 km/h 65% 0.00 mm 0.00 W/m2
19:14 29.0 °C 22.0 °C 1010.5 hPa NE 10 km/h 16 km/h 65% 0.00 mm 0.00 W/m2
19:19 29.0 °C 21.0 °C 1010.5 hPa NNE 12 km/h 16 km/h 65% 0.00 mm 0.00 W/m2
19:24 29.0 °C 21.0 °C 1010.5 hPa NE 8 km/h 12 km/h 65% 0.00 mm 0.00 W/m2
19:29 29.0 °C 21.0 °C 1010.5 hPa NE 9 km/h 12 km/h 65% 0.00 mm 0.00 W/m2
19:34 29.0 °C 22.0 °C 1010.8 hPa East 10 km/h 12 km/h 66% 0.00 mm 0.00 W/m2
19:39 29.0 °C 22.0 °C 1010.8 hPa NNE 13 km/h 16 km/h 66% 0.00 mm 0.00 W/m2
19:44 29.0 °C 22.0 °C 1010.8 hPa NE 8 km/h 12 km/h 66% 0.00 mm 0.00 W/m2
19:49 29.0 °C 22.0 °C 1010.8 hPa NNE 4 km/h 8 km/h 66% 0.00 mm 0.00 W/m2
19:54 29.0 °C 22.0 °C 1010.8 hPa NE 10 km/h 12 km/h 66% 0.00 mm 0.00 W/m2
19:59 29.0 °C 22.0 °C 1010.8 hPa NE 8 km/h 8 km/h 67% 0.00 mm 0.00 W/m2
20:04 28.0 °C 22.0 °C 1010.8 hPa NE 6 km/h 8 km/h 67% 0.00 mm 0.00 W/m2
20:09 28.0 °C 22.0 °C 1011.2 hPa NNE 7 km/h 8 km/h 67% 0.00 mm 0.00 W/m2
20:14 28.0 °C 22.0 °C 1011.2 hPa NNE 8 km/h 8 km/h 67% 0.00 mm 0.00 W/m2
20:19 28.0 °C 22.0 °C 1011.2 hPa NE 10 km/h 12 km/h 67% 0.00 mm 0.00 W/m2
20:24 28.0 °C 22.0 °C 1011.2 hPa NE 13 km/h 16 km/h 67% 0.00 mm 0.00 W/m2
20:29 28.0 °C 22.0 °C 1011.2 hPa NNE 10 km/h 12 km/h 67% 0.00 mm 0.00 W/m2
20:34 28.0 °C 22.0 °C 1011.5 hPa NE 14 km/h 20 km/h 67% 0.00 mm 0.00 W/m2
20:39 28.0 °C 22.0 °C 1011.5 hPa NNE 10 km/h 12 km/h 67% 0.00 mm 0.00 W/m2
20:44 28.0 °C 22.0 °C 1011.5 hPa NE 7 km/h 12 km/h 67% 0.00 mm 0.00 W/m2
20:49 28.0 °C 22.0 °C 1011.2 hPa East 3 km/h 4 km/h 67% 0.00 mm 0.00 W/m2
20:54 28.0 °C 21.0 °C 1011.5 hPa NE 5 km/h 8 km/h 67% 0.00 mm 0.00 W/m2
20:59 28.0 °C 21.0 °C 1011.5 hPa NNE 8 km/h 16 km/h 67% 0.00 mm 0.00 W/m2
21:04 28.0 °C 21.0 °C 1011.5 hPa NE 9 km/h 12 km/h 67% 0.00 mm 0.00 W/m2
21:09 28.0 °C 21.0 °C 1011.5 hPa NE 8 km/h 12 km/h 67% 0.00 mm 0.00 W/m2
21:14 28.0 °C 21.0 °C 1011.5 hPa ENE 4 km/h 4 km/h 67% 0.00 mm 0.00 W/m2
21:19 28.0 °C 21.0 °C 1011.5 hPa NE 5 km/h 8 km/h 67% 0.00 mm 0.00 W/m2
21:24 28.0 °C 21.0 °C 1011.5 hPa NNE 11 km/h 12 km/h 66% 0.00 mm 0.00 W/m2
21:29 28.0 °C 21.0 °C 1011.5 hPa NE 8 km/h 8 km/h 66% 0.00 mm 0.00 W/m2
21:34 28.0 °C 21.0 °C 1011.5 hPa ENE 6 km/h 8 km/h 66% 0.00 mm 0.00 W/m2
21:39 28.0 °C 21.0 °C 1011.5 hPa NE 5 km/h 8 km/h 66% 0.00 mm 0.00 W/m2
21:44 28.0 °C 21.0 °C 1011.9 hPa NE 4 km/h 8 km/h 67% 0.00 mm 0.00 W/m2
21:49 28.0 °C 21.0 °C 1011.9 hPa NE 3 km/h 4 km/h 67% 0.00 mm 0.00 W/m2
21:54 28.0 °C 21.0 °C 1011.9 hPa NNE 3 km/h 4 km/h 67% 0.00 mm 0.00 W/m2
21:59 28.0 °C 21.0 °C 1011.5 hPa NNE 3 km/h 4 km/h 67% 0.00 mm 0.00 W/m2
22:04 28.0 °C 21.0 °C 1011.5 hPa Calm     67% 0.00 mm 0.00 W/m2
22:09 28.0 °C 21.0 °C 1011.5 hPa NNE 2 km/h 4 km/h 67% 0.00 mm 0.00 W/m2
22:14 28.0 °C 21.0 °C 1011.9 hPa NNW 5 km/h 8 km/h 67% 0.00 mm 0.00 W/m2
22:19 28.0 °C 21.0 °C 1011.9 hPa North 4 km/h 4 km/h 67% 0.00 mm 0.00 W/m2
22:24 28.0 °C 21.0 °C 1011.5 hPa NNE 5 km/h 8 km/h 67% 0.00 mm 0.00 W/m2
22:29 28.0 °C 21.0 °C 1011.5 hPa NNE 4 km/h 8 km/h 67% 0.00 mm 0.00 W/m2
22:34 28.0 °C 21.0 °C 1011.9 hPa North 3 km/h 4 km/h 68% 0.00 mm 0.00 W/m2
22:39 28.0 °C 21.0 °C 1011.5 hPa Calm     68% 0.00 mm 0.00 W/m2
22:44 28.0 °C 21.0 °C 1011.5 hPa North 6 km/h 8 km/h 68% 0.00 mm 0.00 W/m2
22:49 28.0 °C 21.0 °C 1011.5 hPa North 6 km/h 8 km/h 68% 0.00 mm 0.00 W/m2
22:54 28.0 °C 21.0 °C 1011.5 hPa North 5 km/h 8 km/h 68% 0.00 mm 0.00 W/m2
22:59 28.0 °C 21.0 °C 1011.9 hPa North 5 km/h 8 km/h 68% 0.00 mm 0.00 W/m2
23:04 28.0 °C 21.0 °C 1011.9 hPa NNE 4 km/h 4 km/h 68% 0.00 mm 0.00 W/m2
23:09 28.0 °C 21.0 °C 1011.9 hPa NNW 5 km/h 8 km/h 68% 0.00 mm 0.00 W/m2
23:14 28.0 °C 21.0 °C 1011.5 hPa NNW 5 km/h 8 km/h 68% 0.00 mm 0.00 W/m2
23:19 28.0 °C 21.0 °C 1011.5 hPa NNW 3 km/h 4 km/h 69% 0.00 mm 0.00 W/m2
23:24 28.0 °C 21.0 °C 1011.5 hPa NNW 1 km/h 4 km/h 69% 0.00 mm 0.00 W/m2
23:29 28.0 °C 21.0 °C 1011.5 hPa NW 4 km/h 4 km/h 69% 0.00 mm 0.00 W/m2
23:34 27.0 °C 21.0 °C 1011.5 hPa North 6 km/h 8 km/h 69% 0.00 mm 0.00 W/m2
23:39 27.0 °C 21.0 °C 1011.5 hPa North 5 km/h 8 km/h 69% 0.00 mm 0.00 W/m2
23:44 27.0 °C 21.0 °C 1011.5 hPa NW 3 km/h 4 km/h 69% 0.00 mm 0.00 W/m2
23:49 27.0 °C 21.0 °C 1011.5 hPa NW 3 km/h 4 km/h 70% 0.00 mm 0.00 W/m2
23:54 27.0 °C 22.0 °C 1011.5 hPa NW 4 km/h 4 km/h 71% 0.00 mm 0.00 W/m2
23:59 27.0 °C 21.0 °C 1011.5 hPa NW 4 km/h 8 km/h 71% 0.00 mm 0.00 W/m2
PIMOHWEATHER Philippines
Compliments of Weather Underground - 2 mb